Hourly Weather Rumyancevskiy

Today, 21 April, Wednesday

Time Temperature Precipitation Wind Pressure Humidity
00:00 0°C° 0.3 mm 4 mps 732 mmHg 97%
01:00 0°C° 0.3 mm 3 mps 731 mmHg 98%
02:00 0°C° 0.3 mm 3 mps 730 mmHg 99%
03:00 0°C° 0.2 mm 3 mps 730 mmHg 99%
04:00 0°C° 0.2 mm 3 mps 730 mmHg 99%
05:00 +1°C° 0.2 mm 2 mps 730 mmHg 99%
06:00 0°C° 0 mm 3 mps 730 mmHg 99%
07:00 +1°C° 0 mm 3 mps 731 mmHg 98%
08:00 +1°C° 0 mm 3 mps 731 mmHg 98%
09:00 +1°C° 0 mm 3 mps 732 mmHg 96%
10:00 +1°C° 0 mm 4 mps 732 mmHg 94%
11:00 +1°C° 0 mm 4 mps 733 mmHg 92%
12:00 +3°C° 0 mm 4 mps 733 mmHg 89%
13:00 +3°C° 0 mm 4 mps 734 mmHg 86%
14:00 +3°C° 0 mm 4 mps 734 mmHg 84%
15:00 +4°C° 0 mm 3 mps 734 mmHg 83%
16:00 +4°C° 0 mm 3 mps 735 mmHg 83%
17:00 +5°C° 0 mm 2 mps 735 mmHg 83%
18:00 +5°C° 0 mm 2 mps 735 mmHg 85%
19:00 +3°C° 0 mm 3 mps 736 mmHg 87%
20:00 +3°C° 0 mm 3 mps 736 mmHg 89%
21:00 +3°C° 0 mm 3 mps 736 mmHg 89%
22:00 +3°C° 0 mm 3 mps 737 mmHg 90%
23:00 +3°C° 0 mm 3 mps 737 mmHg 91%

Tomorrow, 22 April, Thursday

Time Temperature Precipitation Wind Pressure Humidity
00:00 +2°C° 0 mm 3 mps 737 mmHg 92%
01:00 +2°C° 0 mm 3 mps 737 mmHg 93%
02:00 +2°C° 0 mm 3 mps 738 mmHg 94%
03:00 +2°C° 0 mm 3 mps 738 mmHg 93%
04:00 +1°C° 0 mm 4 mps 738 mmHg 92%
05:00 +1°C° 0 mm 4 mps 738 mmHg 91%
06:00 +3°C° 0.1 mm 4 mps 739 mmHg 87%
07:00 +3°C° 0.1 mm 5 mps 739 mmHg 84%
08:00 +5°C° 0.1 mm 5 mps 739 mmHg 81%
09:00 +7°C° 0 mm 5 mps 739 mmHg 76%
10:00 +9°C° 0 mm 6 mps 739 mmHg 70%
11:00 +10°C° 0 mm 6 mps 739 mmHg 64%
12:00 +11°C° 0.2 mm 6 mps 739 mmHg 63%
13:00 +11°C° 0.2 mm 6 mps 739 mmHg 62%
14:00 +13°C° 0.2 mm 5 mps 739 mmHg 61%
15:00 +12°C° 0.5 mm 5 mps 739 mmHg 65%
16:00 +12°C° 0.5 mm 5 mps 739 mmHg 69%
17:00 +10°C° 0.5 mm 5 mps 739 mmHg 74%
18:00 +9°C° 0 mm 5 mps 739 mmHg 78%
19:00 +8°C° 0 mm 5 mps 739 mmHg 81%
20:00 +8°C° 0 mm 5 mps 740 mmHg 85%
21:00 +7°C° 0 mm 5 mps 739 mmHg 85%
22:00 +7°C° 0 mm 5 mps 739 mmHg 86%
23:00 +7°C° 0 mm 5 mps 739 mmHg 86%

Day after tomorrow, 23 April, Friday

Time Temperature Precipitation Wind Pressure Humidity
00:00 +7°C° 0.1 mm 4 mps 739 mmHg 86%
01:00 +6°C° 0.1 mm 4 mps 739 mmHg 86%
02:00 +6°C° 0.1 mm 4 mps 739 mmHg 86%
03:00 +6°C° 0 mm 4 mps 739 mmHg 84%
04:00 +6°C° 0 mm 5 mps 739 mmHg 83%
05:00 +6°C° 0 mm 5 mps 739 mmHg 82%
06:00 +8°C° 0 mm 5 mps 739 mmHg 77%
07:00 +9°C° 0 mm 6 mps 739 mmHg 73%
08:00 +11°C° 0 mm 6 mps 739 mmHg 69%
09:00 +12°C° 0 mm 7 mps 739 mmHg 61%
10:00 +14°C° 0 mm 7 mps 739 mmHg 53%
11:00 +15°C° 0 mm 8 mps 739 mmHg 45%
12:00 +15°C° 0 mm 8 mps 739 mmHg 48%
13:00 +14°C° 0 mm 7 mps 738 mmHg 52%
14:00 +14°C° 0 mm 7 mps 738 mmHg 55%
15:00 +14°C° 0.1 mm 7 mps 738 mmHg 56%
16:00 +14°C° 0.1 mm 7 mps 737 mmHg 57%
17:00 +14°C° 0.1 mm 7 mps 737 mmHg 59%
18:00 +11°C° 0.1 mm 6 mps 737 mmHg 64%
19:00 +10°C° 0.1 mm 6 mps 736 mmHg 69%
20:00 +9°C° 0.1 mm 5 mps 736 mmHg 74%
21:00 +9°C° 0.1 mm 5 mps 736 mmHg 77%
22:00 +8°C° 0.1 mm 5 mps 735 mmHg 80%
23:00 +8°C° 0.1 mm 5 mps 735 mmHg 83%

24 April, Saturday

Time Temperature Precipitation Wind Pressure Humidity
00:00 +8°C° 0.5 mm 5 mps 734 mmHg 84%
01:00 +7°C° 0.5 mm 6 mps 734 mmHg 85%
02:00 +6°C° 0.5 mm 7 mps 733 mmHg 86%
03:00 +5°C° 0.2 mm 6 mps 733 mmHg 89%
04:00 +3°C° 0.2 mm 5 mps 733 mmHg 92%
05:00 +1°C° 0.2 mm 4 mps 734 mmHg 95%
06:00 +1°C° 1.3 mm 4 mps 734 mmHg 96%
07:00 +1°C° 1.3 mm 4 mps 734 mmHg 97%
08:00 +1°C° 1.3 mm 4 mps 734 mmHg 97%
09:00 +2°C° 0.5 mm 5 mps 734 mmHg 88%
10:00 +3°C° 0.5 mm 5 mps 734 mmHg 79%
11:00 +5°C° 0.5 mm 5 mps 734 mmHg 70%
12:00 +5°C° 0.1 mm 6 mps 734 mmHg 62%
13:00 +6°C° 0.1 mm 7 mps 734 mmHg 54%
14:00 +6°C° 0.1 mm 7 mps 734 mmHg 46%
15:00 +6°C° 0.2 mm 7 mps 734 mmHg 52%
16:00 +5°C° 0.2 mm 6 mps 734 mmHg 59%
17:00 +4°C° 0.2 mm 6 mps 734 mmHg 66%
18:00 +3°C° 0 mm 5 mps 734 mmHg 70%
19:00 +2°C° 0 mm 5 mps 735 mmHg 75%
20:00 +1°C° 0 mm 4 mps 735 mmHg 79%
21:00 0°C° 0 mm 4 mps 735 mmHg 81%
22:00 0°C° 0 mm 4 mps 735 mmHg 84%
23:00 0°C° 0 mm 4 mps 735 mmHg 86%

25 April, Sunday

Time Temperature Precipitation Wind Pressure Humidity
00:00 -1°C° 0 mm 4 mps 735 mmHg 88%
01:00 -1°C° 0 mm 4 mps 735 mmHg 90%
02:00 -2°C° 0 mm 5 mps 735 mmHg 91%
03:00 -2°C° 0 mm 4 mps 735 mmHg 92%
04:00 -2°C° 0 mm 4 mps 735 mmHg 93%
05:00 -2°C° 0 mm 4 mps 735 mmHg 93%
06:00 -1°C° 0 mm 4 mps 735 mmHg 86%
07:00 +1°C° 0 mm 5 mps 735 mmHg 79%
08:00 +2°C° 0 mm 5 mps 735 mmHg 71%
09:00 +3°C° 0.2 mm 5 mps 735 mmHg 66%
10:00 +5°C° 0.2 mm 5 mps 735 mmHg 60%
11:00 +5°C° 0.2 mm 6 mps 735 mmHg 55%
12:00 +5°C° 0.3 mm 6 mps 735 mmHg 53%
13:00 +5°C° 0.3 mm 6 mps 735 mmHg 51%
14:00 +7°C° 0.3 mm 6 mps 735 mmHg 49%
15:00 +5°C° 0.3 mm 6 mps 735 mmHg 54%
16:00 +4°C° 0.3 mm 6 mps 735 mmHg 58%
17:00 +5°C° 0.3 mm 5 mps 735 mmHg 62%
18:00 +3°C° 0.1 mm 5 mps 735 mmHg 66%
19:00 +1°C° 0.1 mm 4 mps 736 mmHg 71%
20:00 +1°C° 0.1 mm 3 mps 736 mmHg 75%
21:00 0°C° 0 mm 4 mps 736 mmHg 78%
22:00 0°C° 0 mm 4 mps 736 mmHg 81%
23:00 -1°C° 0 mm 4 mps 736 mmHg 84%

26 April, Monday

Time Temperature Precipitation Wind Pressure Humidity
00:00 -1°C° 0 mm 4 mps 736 mmHg 86%
01:00 -2°C° 0 mm 4 mps 736 mmHg 87%
02:00 -2°C° 0 mm 4 mps 736 mmHg 89%
03:00 -2°C° 0 mm 4 mps 736 mmHg 89%
04:00 -2°C° 0 mm 4 mps 736 mmHg 88%
05:00 -2°C° 0 mm 4 mps 736 mmHg 88%
06:00 -1°C° 0 mm 4 mps 736 mmHg 81%
07:00 +1°C° 0 mm 5 mps 736 mmHg 75%
08:00 +2°C° 0 mm 6 mps 736 mmHg 68%
09:00 +3°C° 0.1 mm 6 mps 736 mmHg 63%
10:00 +4°C° 0.1 mm 6 mps 735 mmHg 58%
11:00 +6°C° 0.1 mm 5 mps 735 mmHg 53%
12:00 +6°C° 0.3 mm 5 mps 735 mmHg 53%
13:00 +6°C° 0.3 mm 5 mps 735 mmHg 53%
14:00 +6°C° 0.3 mm 5 mps 735 mmHg 53%
15:00 +6°C° 0.2 mm 5 mps 735 mmHg 56%
16:00 +5°C° 0.2 mm 5 mps 735 mmHg 60%
17:00 +5°C° 0.2 mm 4 mps 735 mmHg 63%
18:00 +3°C° 0 mm 4 mps 735 mmHg 68%
19:00 +2°C° 0 mm 3 mps 735 mmHg 73%
20:00 +2°C° 0 mm 2 mps 735 mmHg 77%
21:00 0°C° 0 mm 3 mps 735 mmHg 80%
22:00 -1°C° 0 mm 3 mps 735 mmHg 83%
23:00 -1°C° 0 mm 3 mps 735 mmHg 85%
Show more